Rayong, Thailand

11:48 PM +07 on October 19, 2017 (GMT +0700)
U-Taphao International

Weather History for VTBU - January, 2013

Change the Weather History Date:

Friday, January 4, 2013

  Actual Average Record
Temperature  
Mean Temperature 80 °F -  
Max Temperature 91 °F 87 °F 93 °F (2004)
Min Temperature 69 °F 71 °F 62 °F (2005)
Cooling Degree Days 15    
Growing Degree Days 30 (Base 50)    
Moisture  
Dew Point 63 °F    
Average Humidity 60    
Maximum Humidity 83    
Minimum Humidity 31    
Precipitation  
Precipitation 0.00 in - - ()
Sea Level Pressure  
Sea Level Pressure 29.83 in    
Wind  
Wind Speed 5 mph ()    
Max Wind Speed 9 mph    
Max Gust Speed -    
Visibility 2.5 miles    
Events      
Averages and records for this station are not official NWS values.
T = Trace of Precipitation, MM = Missing Value Source: Averaged Metar Reports

Daily Weather History Graph

Daily Weather History Graph

Search for Another Location

Airport or City:

Trip Planner

Search our weather history database for the weather conditions in past years. The results will help you decide how hot, cold, wet, or windy it might be!

Date:

Astronomy

Jan. 04, 2013 Rise Set
Actual Time 6:37 AM +07 6:01 PM +07
Civil Twilight 6:14 AM +07 6:24 PM +07
Nautical Twilight 5:47 AM +07 6:51 PM +07
Astronomical Twilight 5:21 AM +07 7:17 PM +07
Moon 11:50 PM +07 (1/4) 11:14 AM +07 (1/4)
Length of Visible Light 12h 10m
Length of Day
11h 24m
Waning Gibbous, 60% of the Moon is Illuminated
Jan 4
Waning Gibbous
Jan 5
Last Quarter
Jan 12
New
Jan 19
First Quarter
Jan 27
Full

Hourly Weather History & Observations

Time (+07) Temp. Heat Index Dew Point Humidity Pressure Visibility Wind Dir Wind Speed Gust Speed Precip Events Conditions
12:00 AM 71.6 °F - 66.2 °F 83% 29.89 in 2.5 mi North 3.5 mph - N/A   Mist
12:30 AM 71.6 °F - 66.2 °F 83% 29.89 in 2.5 mi North 4.6 mph - N/A   Mist
1:00 AM 71.6 °F - 64.4 °F 78% 29.86 in 2.5 mi North 4.6 mph - N/A   Mist
1:30 AM 71.6 °F - 64.4 °F 78% 29.86 in 2.5 mi North 4.6 mph - N/A   Mist
2:00 AM 71.6 °F - 64.4 °F 78% 29.86 in 2.5 mi North 4.6 mph - N/A   Mist
2:30 AM 71.6 °F - 66.2 °F 83% 29.83 in 2.5 mi North 4.6 mph - N/A   Mist
3:00 AM 71.6 °F - 64.4 °F 78% 29.83 in 2.5 mi North 4.6 mph - N/A   Mist
3:30 AM 71.6 °F - 66.2 °F 83% 29.83 in 2.5 mi North 4.6 mph - N/A   Mist
4:00 AM 71.6 °F - 64.4 °F 78% 29.83 in 2.5 mi NNW 4.6 mph - N/A   Mist
5:00 AM 69.8 °F - 64.4 °F 83% 29.83 in 2.5 mi NNW 6.9 mph - N/A   Mist
5:30 AM 71.6 °F - 64.4 °F 78% 29.83 in 2.5 mi North 5.8 mph - N/A   Mist
6:00 AM 71.6 °F - 62.6 °F 73% 29.83 in 2.5 mi NNW 3.5 mph - N/A   Mist
6:30 AM 71.6 °F - 62.6 °F 73% 29.83 in 2.5 mi North 4.6 mph - N/A   Mist
7:00 AM 71.6 °F - 62.6 °F 73% 29.86 in 2.5 mi NNE 4.6 mph - N/A   Mist
7:30 AM 73.4 °F - 62.6 °F 69% 29.86 in 2.5 mi NNW 6.9 mph - N/A   Mist
8:00 AM 73.4 °F - 62.6 °F 69% 29.86 in 2.5 mi NNW 4.6 mph - N/A   Mist
8:30 AM 77.0 °F - 62.6 °F 61% 29.89 in 2.5 mi NNW 4.6 mph - N/A   Mist
9:00 AM 78.8 °F - 64.4 °F 61% 29.89 in 2.5 mi NNW 6.9 mph - N/A   Haze
9:30 AM 82.4 °F 82.9 °F 60.8 °F 48% 29.89 in 2.5 mi North 4.6 mph - N/A   Haze
10:00 AM 84.2 °F 83.8 °F 59.0 °F 42% 29.89 in 2.5 mi NNE 5.8 mph - N/A   Haze
10:30 AM 84.2 °F 83.8 °F 59.0 °F 42% 29.89 in 3.1 mi ENE 9.2 mph - N/A   Haze
11:00 AM 86.0 °F 84.9 °F 57.2 °F 37% 29.89 in 3.1 mi NE 9.2 mph - N/A   Haze
11:30 AM 86.0 °F 85.4 °F 59.0 °F 40% 29.86 in 3.1 mi East 3.5 mph - N/A   Haze
12:00 PM 87.8 °F 87.1 °F 59.0 °F 38% 29.86 in 3.1 mi NNE 4.6 mph - N/A   Haze
12:30 PM 87.8 °F 86.5 °F 57.2 °F 35% 29.86 in 3.1 mi NNE 5.8 mph - N/A   Haze
1:00 PM 87.8 °F 86.5 °F 57.2 °F 35% 29.83 in 3.1 mi ESE 4.6 mph - N/A   Haze
1:30 PM 89.6 °F 88.1 °F 57.2 °F 33% 29.80 in 3.1 mi South 9.2 mph - N/A   Haze
2:00 PM 89.6 °F 89.5 °F 60.8 °F 38% 29.80 in 3.1 mi South 5.8 mph - N/A   Haze
2:30 PM 87.8 °F 87.6 °F 60.8 °F 40% 29.77 in 3.1 mi South 5.8 mph - N/A   Haze
3:00 PM 91.4 °F 89.9 °F 57.2 °F 31% 29.77 in 3.1 mi South 4.6 mph - N/A   Haze
3:30 PM 91.4 °F 89.9 °F 57.2 °F 31% 29.74 in 3.1 mi South 3.5 mph - N/A   Haze
4:00 PM 89.6 °F 89.5 °F 60.8 °F 38% 29.74 in 3.1 mi SSW 6.9 mph - N/A   Haze
4:30 PM 87.8 °F 89.4 °F 64.4 °F 46% 29.74 in 2.5 mi SSW 9.2 mph - N/A   Haze
5:00 PM 87.8 °F 90.4 °F 66.2 °F 49% 29.74 in 2.5 mi West 6.9 mph - N/A   Haze
5:30 PM 86.0 °F 88.2 °F 66.2 °F 51% 29.77 in 2.5 mi WNW 5.8 mph - N/A   Haze
6:00 PM 84.2 °F 87.3 °F 68.0 °F 58% 29.77 in 1.9 mi West 3.5 mph - N/A   Haze
6:30 PM 82.4 °F 85.4 °F 68.0 °F 62% 29.77 in 1.9 mi West 2.3 mph - N/A   Haze
7:00 PM 80.6 °F 83.2 °F 68.0 °F 65% 29.77 in 1.9 mi North 3.5 mph - N/A   Haze
7:30 PM 80.6 °F 83.2 °F 68.0 °F 65% 29.80 in 1.9 mi North 5.8 mph - N/A   Scattered Clouds
8:00 PM 78.8 °F - 66.2 °F 65% 29.80 in 1.9 mi North 4.6 mph - N/A   Mist
8:30 PM 78.8 °F - 66.2 °F 65% 29.80 in 1.9 mi North 5.8 mph - N/A   Mist
9:00 PM 77.0 °F - 66.2 °F 69% 29.83 in 1.9 mi NE 6.9 mph - N/A   Mist
9:30 PM 77.0 °F - 66.2 °F 69% 29.83 in 1.9 mi NNW 4.6 mph - N/A   Mist
10:00 PM 77.0 °F - 64.4 °F 65% 29.83 in 1.9 mi North 5.8 mph - N/A   Mist
10:30 PM 75.2 °F - 64.4 °F 69% 29.83 in 1.9 mi NNW 6.9 mph - N/A   Mist
11:00 PM 75.2 °F - 64.4 °F 69% 29.83 in 1.9 mi NNW 5.8 mph - N/A   Mist
11:30 PM 73.4 °F - 62.6 °F 69% 29.83 in 1.9 mi NNW 6.9 mph - N/A   Mist